Tracking 28792 objects as of 25-Apr-2024
HD Live streaming from Space Station
objects crossing your sky now

STARLINK-31475

Track STARLINK-31475 now!
10-day predictions
STARLINK-31475 is classified as:


NORAD ID: 59310
Int'l Code: 2024-056Q
Perigee: 449.9 km
Apogee: 452.4 km
Inclination: 43.0 °
Period: 93.5 minutes
Semi major axis: 6822 km
RCS: Unknown
Launch date: March 24, 2024
Source: United States (US)
Launch site: AIR FORCE EASTERN TEST RANGE (AFETR)
Your satellite tracking list
Your tracking list is empty




NASA's NSSDC Master Catalog

Two Line Element Set (TLE):
1 59310U 24056Q   24115.91667824 -.00065029  00000-0 -15624-2 0  9995
2 59310  42.9992 174.1893 0001846 256.5022 194.4495 15.40705321  6212
Source of the keplerian elements: AFSPC